User: anonymous   Login
Location: Newsoms
(36.6240°N, 77.1250°W)
Time: 06:35:30
(UTC-04:00)
Language:

BREEZE-M DEB (TANK) - Orbit

View from above orbital plane
View from above orbital plane
View from above satellite
View from above satellite

Ground track
Ground track

The orbit data is extracted from the following two-line orbital elements,

1 29649U 06056B   17174.54103253 -.00000653 +00000-0 -19727-3 0  9995
2 29649 049.4872 229.1107 5364718 165.3257 220.1649 04.99641955188082
Epoch (UTC): 23 June 2017 12:59:05
Eccentricity: 0.5364718
inclination: 49.4872°
perigee height: 321 km
apogee height: 15828 km
right ascension of ascending node: 229.1107°
argument of perigee: 165.3257°
revolutions per day: 4.99641955
mean anomaly at epoch: 220.1649°
orbit number at epoch: 18808

The dashed part of the orbit path shows where the satellite is in the earth's shadow,  

DLR